Tracking 19969 objects as of 12-Nov-2019
Live streaming from Space Station
objects crossing your sky now
Track the group of recently launched Starlink satellites

CZ-3B R/B

Track CZ-3B R/B now!


NORAD ID: 25405
Int'l Code: 1998-044B
Perigee: 551.6 km
Apogee: 35,818.9 km
Inclination: 18.2 °
Period: 638.3 minutes
Semi major axis: 24556 km
RCS: 22.0892 m2 (large)
Launch date: July 18, 1998
Source: People's Republic of China (PRC)
Launch site: Xichang Space Center, China (XSC)

Note: This is a ROCKET BODY
aabbcc
Your satellite tracking list
Your tracking list is empty




NASA's NSSDC Master Catalog

Two Line Element Set (TLE):
1 25405U 98044B   19314.62075394 -.00000100  00000-0 -31869-3 0  9998
2 25405  18.2308 146.2883 7180940 289.9282 334.5741  2.25610807175709
Source of the keplerian elements: AFSPC